FENGYUN 1C DEB

Satellite information

Favourite Embed

Satellite Type and Status

DEBRISIN ORBIT

Key statistics

Satellite FENGYUN 1C DEB at a glance.

Uptime

9714

Days in orbit

Revolutions

≈ 14.5

Per day

Orbit

SSO

Sun Synchronous Orbit

Inclination

99.0

Latest

Satellite identification and parameters

Extended collection of information and parameters for FENGYUN 1C DEB.

Object identification

Identified? True

Debris? True

Object name: FENGYUN 1C DEB

International designator: 1999-025DWQ

Object number (NORAD): 36263

Object ID (CCSDS): 36263

Country: PEOPLES REPUBLIC OF CHINA (PRC)

Current information (Y/N): Y

RCS size: SMALL

Orbital parameters

Period: 99.611 minutes

Inclination: 98.9987 deg

SMA: 7118.136 km

Apoapsis: 765.777 km

Periapsis: 714.225 km

RAAN: 226.3791 deg

Eccentricy: 0.00362114

Argument of periapsis: 269.226 deg

Mean anomaly: 90.478 deg

Mean motion: 14.456173 rev/day

Mean motion (dot): 0.00013243 rev/day2

B* drag term: 0.0037241412 1/REarth

Two-line elements (TLE)

Creation date: Dec. 11, 2025, 7:14 p.m.

Reference frame: TEME

Reference center: EARTH

Epoch: Dec. 11, 2025, 9:49 a.m. UTC

TLE line 0: 0 FENGYUN 1C DEB

TLE line 1: 1 36263U 99025DWQ 25345.40952907 .00013243 00000-0 37241-2 0 9992

TLE line 2: 2 36263 98.9987 226.3791 0036211 269.2260 90.4780 14.45617300879667

Live tracking on map

Real-time ground track for satellite FENGYUN 1C DEB.

In-orbit conjunctions

A list of the most updated potential collisions computed for object FENGYUN 1C DEB.

Target Orbit TCA Probability of collision Miss distance Type
COSMOS 1371 LEO 2024-09-21 05:05:56 0.0001438475 809.0 (m) PAYLOAD
COSMOS 1275 DEB LEO 2024-07-22 11:55:18 0.0001061096 77.0 (m) DEBRIS

Associated space launch

Chinese polar orbiting meteorological satellite

FENGYUN 1C DEB was lifted into orbit during the mission ‘Long March 4B | Feng Yun 1C’, on board a Long March 4B space rocket.

The launch took place on May 10, 1999, 1:33 a.m. from Launch Complex 7.

For more information about the launch, click the button.

Launch to space Long March 4B | Feng Yun 1C
Long March 4B | Feng Yun 1C

Agency: N/A

Status: Launch Successful

Launch date: May 10, 1999, 1:33 a.m. UTC

Rocket: Long March 4B

Launch pad: Launch Complex 7

Location: Taiyuan Satellite Launch Center, People's Republic of China

...

Latest news about this satellite

There are no fresh news available about this satellite. Check back as we update our databases every day.


Newsletter sign-up

Weekly statistics, charts and insights to help you stay on top of the space industry.